ISS DEB (44788 NORAD) Tracking and Keplerian Element Data

This shows tracking and keplerian element data for the satellite.

Feedback or suggestion? Click here.




ElementValue
Catalog44788
NameISS DEB
Epoch Orbit2157
Epoch Day93.47267302
Epoch Year2020
RAAN0.7454
Inclination51.6458
Eccentricity0.0006223
Argument of Perigee85.7831
Mean Anonmoly274.395
Mean Motion15.53542801
Decay Rate0.00018082
L11 44788U 98067QT 20093.47267302 .00018082 00000-0 28559-3 0 9997
L22 44788 51.6458 0.7454 0006223 85.7831 274.3950 15.53542801 21576

Live tracking and technical data element details for ISS DEB (NORAD 44788). ISS DEB can be tracked NOW for your location showing map with azimuth and elevation plus other details from your city location.

Track the satellite on the map from your city or location and see movement details for azimuth, elevation, latitude, longitude, range, height, and movement on the map or in text.







IsCatalogInMostPopularTable: catalog: 44788, numindb: 68
Update: records affected: 1



GetName: 44788 ISS DEB

Hit Count: updated at: Fri, 10 Apr 2020 19:24:13 GMT